Wind_Speed
5 5 8 6 1 2 2 4 7 9 10 9 6 6 7 6 8 8 8 6 4 5 9 11 9 10 9 6 5 6 8 10 11 11 11 11 12 13 13 14 15 22 21 17 18 21 24 23 21 21 24 27 25 23 21 19 18 15 14 12 9 8 7 7 7 5 5 5 4 4 4 4 4 3 3 3 3 2 2 2 1 2 2 4 4 3
3 7 9 2 6 6 4 5 6 7 7 8 8 7 7 6 6 4 6 7 4 5 9 11 9 8 10 8 5 5 9 11 12 12 13 14 13 13 13 13 12 18 22 20 20 23 24 23 23 24 26 28 26 24 23 20 19 16 14 12 10 8 8 8 9 7 6 6 4 4 5 4 4 4 4 4 2 1 1 2 2 3 3 4 5 5
7 9 6 3 5 2 2 4 5 7 8 7 8 8 7 7 5 4 6 5 5 4 9 10 8 8 11 10 8 8 9 10 13 13 13 15 14 14 13 12 11 13 20 21 21 23 23 22 25 28 28 29 27 26 24 22 20 18 16 14 12 10 9 10 10 8 7 7 7 6 7 6 4 5 6 5 4 3 2 2 2 1 0 1 1 3
5 4 4 7 3 2 3 5 7 7 8 8 8 8 7 8 8 3 5 5 4 4 9 10 6 5 9 10 8 10 11 10 10 12 13 14 14 14 13 12 12 12 15 19 19 23 25 24 26 29 29 29 28 27 26 25 23 21 19 16 14 12 11 11 11 10 8 9 9 9 9 8 6 6 6 5 4 5 4 5 5 4 4 4 3 2
4 5 7 5 2 5 7 7 8 8 7 8 9 8 8 8 8 4 3 3 4 6 7 9 7 6 10 13 11 10 11 9 9 11 12 13 13 12 11 11 11 11 13 16 18 20 22 24 26 30 31 30 30 29 28 27 25 24 21 18 16 13 13 13 12 11 10 9 8 8 9 9 7 6 7 6 5 5 5 5 5 6 6 5 4 4
3 6 5 3 3 7 8 7 9 8 7 8 10 9 10 10 6 5 4 4 6 7 7 7 8 7 9 13 11 8 9 9 10 12 13 14 14 12 11 11 10 10 11 13 17 19 20 22 24 28 31 32 31 31 30 28 27 26 23 21 18 15 14 14 12 11 10 9 8 8 9 9 8 8 7 6 5 5 4 4 5 6 6 6 6 5
2 5 3 3 5 9 8 9 9 8 8 6 5 8 9 10 7 8 8 6 7 6 5 5 7 7 5 6 6 5 8 10 10 10 11 14 14 13 13 13 12 11 10 11 14 17 18 19 21 24 29 33 34 32 31 29 28 27 25 23 20 17 16 15 13 11 11 10 10 10 10 10 9 9 8 7 7 6 5 4 5 5 6 7 7 5
4 4 3 5 7 8 7 9 7 7 8 4 1 4 8 10 9 8 10 8 8 6 5 8 9 8 6 5 5 6 8 10 10 9 8 10 11 10 10 9 9 8 8 9 11 14 17 18 20 22 25 30 33 33 33 31 30 29 26 25 22 19 17 16 13 12 12 12 11 12 11 10 9 9 9 8 7 6 5 5 5 5 5 6 6 6
3 5 5 8 8 7 9 8 5 7 8 2 1 6 7 9 9 8 9 8 7 7 6 8 9 7 7 6 6 8 9 11 10 9 8 7 7 6 5 4 4 5 6 7 8 11 15 16 19 20 21 23 27 32 34 34 32 31 29 26 24 21 18 17 14 12 13 13 13 13 12 11 10 10 10 8 7 6 6 5 5 5 4 4 5 6
4 4 5 8 8 8 9 4 3 6 7 3 3 7 9 9 9 8 8 8 6 6 8 9 8 7 7 6 6 8 8 10 7 8 6 6 5 4 2 2 3 4 5 7 7 8 10 12 16 18 19 20 22 27 33 35 34 32 31 29 26 23 20 18 16 14 15 15 14 14 13 13 11 11 10 9 8 7 6 5 5 5 4 3 4 5
5 4 4 6 8 10 7 3 2 4 6 5 6 8 9 8 7 7 7 7 7 7 10 11 9 7 7 6 6 5 2 3 5 7 4 4 4 2 1 2 3 3 4 5 7 7 7 9 12 15 17 19 21 23 27 33 35 33 32 31 28 26 22 20 18 17 17 17 16 15 15 14 13 13 12 11 9 8 7 6 5 5 4 3 2 3
6 8 6 7 9 10 8 6 6 6 7 8 8 8 7 6 6 6 7 6 7 8 8 8 8 8 8 6 2 5 5 2 3 5 4 3 2 2 2 2 3 4 5 5 6 6 6 8 10 13 16 18 20 22 23 28 33 33 32 32 30 28 25 23 20 19 19 19 18 16 15 16 15 14 13 12 11 10 9 8 7 6 6 4 2 1
7 9 9 8 7 8 9 8 7 7 8 9 8 7 6 6 5 6 6 5 7 7 3 3 5 6 7 4 4 7 6 4 2 1 2 2 1 3 3 4 5 4 5 5 5 5 5 6 9 12 15 17 19 21 21 22 28 31 31 31 31 30 28 25 22 21 21 21 19 17 16 17 16 15 14 13 12 11 10 9 8 7 6 5 4 2
6 8 9 8 6 7 9 8 6 6 7 8 7 6 6 5 6 7 6 6 7 5 2 1 2 5 7 1 6 7 5 5 4 3 3 3 3 3 3 4 4 5 6 6 5 5 4 2 6 10 13 16 18 19 19 20 23 28 28 29 30 30 30 27 24 22 22 22 21 19 17 17 17 17 16 14 13 12 11 10 10 8 7 7 6 4
6 5 7 5 4 6 8 9 7 5 5 7 7 7 7 6 6 7 5 6 6 3 4 4 2 6 6 2 4 6 6 6 6 6 5 4 4 4 4 5 6 7 7 7 7 6 4 2 2 6 9 13 14 15 17 17 19 22 23 24 27 29 31 28 25 23 24 23 22 20 18 17 16 16 17 15 13 13 12 11 11 10 9 8 7 6
9 5 6 4 3 4 7 7 7 8 5 5 6 7 7 5 6 6 6 6 5 4 4 5 4 5 2 6 5 6 8 8 8 8 7 6 6 5 6 7 8 8 8 8 8 8 6 4 3 5 7 10 11 12 14 15 15 17 18 20 23 26 28 28 26 25 25 24 24 23 20 18 16 15 16 15 14 14 14 13 12 11 10 9 9 9
7 4 7 6 6 6 5 4 4 7 5 3 5 7 6 6 6 6 7 5 3 6 7 6 7 5 3 6 9 8 7 8 8 8 7 8 8 7 7 7 8 9 9 9 9 9 8 6 5 5 7 8 9 10 11 12 12 13 14 16 20 21 22 23 25 25 25 25 25 24 22 20 18 16 15 15 15 15 15 14 13 12 12 11 11 11
4 5 3 7 8 6 3 6 7 8 8 6 4 3 5 7 6 5 6 5 5 7 7 7 9 8 5 4 8 10 9 8 8 8 8 7 7 8 8 8 9 9 10 10 10 10 9 9 7 7 7 8 10 10 9 8 8 9 10 13 16 18 18 18 19 21 24 25 25 25 24 22 21 19 17 15 15 15 16 16 15 14 14 13 14 13
1 6 7 8 7 5 5 7 9 10 11 10 8 5 4 6 5 5 5 6 7 8 6 8 10 8 7 4 8 10 10 10 9 8 9 8 8 9 9 10 10 9 9 10 11 10 9 10 9 9 9 9 10 11 10 9 7 6 8 10 13 14 14 14 15 16 20 24 25 26 25 23 22 22 20 17 15 15 15 16 16 15 15 15 15 15
1 6 6 5 5 3 3 6 8 8 11 11 10 8 6 6 6 5 5 5 7 8 7 8 9 6 4 1 7 10 10 10 9 8 8 8 9 9 9 10 10 10 10 10 11 11 10 10 10 10 11 11 12 12 12 11 8 7 9 10 10 10 12 12 12 13 16 19 22 25 25 23 22 22 21 19 17 17 16 16 16 16 16 17 16 17
2 5 6 5 4 4 5 5 6 7 5 7 8 8 7 7 6 6 7 6 7 8 7 7 8 4 2 3 1 7 9 10 9 8 8 8 10 10 10 11 10 11 11 11 12 11 11 11 9 9 9 10 15 18 17 15 12 10 9 9 9 8 8 9 10 10 11 13 17 22 25 24 22 23 21 19 18 19 19 17 17 17 17 18 18 18
4 5 6 7 6 7 6 2 4 8 7 5 6 6 6 6 6 7 8 7 7 8 7 8 8 3 2 2 3 4 6 9 9 9 9 10 11 12 12 11 11 12 11 11 12 12 12 12 11 11 11 11 14 18 19 19 19 17 14 12 12 11 10 9 9 8 9 11 12 16 21 22 23 25 24 21 19 19 19 19 18 18 18 18 19 20
2 4 6 7 8 10 11 4 2 6 9 10 9 8 8 7 7 8 8 7 6 8 8 8 8 3 2 1 1 1 3 7 8 9 11 11 12 12 12 12 12 12 12 12 12 12 12 12 12 13 13 14 14 13 13 14 16 18 17 15 14 13 12 11 11 10 8 9 10 11 14 17 19 21 21 20 19 18 21 24 21 18 18 18 19 20
2 3 7 8 8 11 14 11 8 6 8 11 11 9 10 10 10 9 9 8 7 9 8 7 8 3 2 2 3 5 4 5 7 10 11 11 11 12 12 12 12 11 12 11 11 11 11 11 12 12 12 14 14 14 13 12 12 12 11 11 11 11 11 11 10 7 6 8 10 11 11 13 14 15 16 18 17 16 19 24 25 23 20 19 19 20
1 5 6 7 8 7 9 11 9 7 6 7 8 11 12 12 11 10 9 8 8 11 11 9 9 2 3 1 3 6 6 7 9 11 12 12 11 12 11 11 10 10 11 10 11 11 10 10 10 11 11 12 12 13 13 13 13 13 12 10 9 7 7 7 6 6 8 10 11 12 11 10 11 13 16 18 21 21 20 22 24 25 24 21 21 21
3 6 5 6 7 7 7 7 5 3 4 5 7 12 12 10 9 9 8 8 9 12 12 11 9 1 5 4 4 5 6 8 9 11 12 12 11 11 11 10 10 9 9 9 10 9 9 10 9 9 10 10 10 10 11 11 11 11 11 10 9 8 7 7 6 6 10 10 8 7 6 4 6 9 11 14 18 22 24 25 25 25 25 24 23 24
5 6 8 10 10 9 11 11 9 8 8 8 9 12 11 9 10 9 8 8 9 10 11 11 11 8 5 6 5 5 6 7 8 10 10 11 12 11 11 11 9 9 9 9 9 9 9 9 9 9 9 9 9 9 9 9 9 9 8 8 6 5 6 7 8 9 12 11 8 6 4 2 3 6 7 9 12 15 20 23 23 22 22 22 21 23
5 7 10 13 14 14 15 16 16 14 14 14 14 14 14 15 15 12 10 11 11 10 11 11 11 12 10 7 6 6 7 7 7 9 10 10 11 11 11 11 10 9 9 8 8 8 9 9 8 8 9 9 8 8 8 7 7 7 7 6 4 2 2 3 4 5 7 8 8 9 10 11 11 11 12 12 13 15 18 18 18 19 20 21 23 24
6 8 10 13 15 16 16 16 16 16 15 16 17 17 17 18 19 16 15 16 14 11 13 14 14 14 11 9 9 6 7 9 9 9 11 10 11 11 11 11 10 9 9 9 9 9 8 8 8 8 8 8 7 7 6 6 6 6 6 5 5 3 2 1 1 1 3 4 6 7 10 13 15 16 17 17 15 16 18 16 15 16 18 21 23 25
4 6 8 11 14 15 17 17 17 16 17 17 18 19 19 19 20 19 19 20 19 18 18 18 18 17 14 11 12 10 8 9 9 11 12 11 12 14 13 12 11 10 10 9 9 9 8 8 8 7 7 7 6 6 5 5 4 4 4 4 3 2 2 2 2 1 2 3 5 6 6 7 9 10 12 14 13 14 16 14 13 13 15 18 19 21
2 5 7 9 11 13 15 17 17 17 18 19 19 20 19 20 20 19 19 18 18 18 18 18 17 14 11 11 13 15 16 15 13 14 15 15 15 16 15 13 12 12 12 10 9 9 8 8 7 7 6 6 5 4 4 3 3 3 3 3 2 2 2 3 4 4 3 3 4 5 5 6 7 7 8 10 10 11 12 12 12 12 14 17 17 17
3 6 8 9 10 11 13 16 17 18 18 19 20 20 20 19 17 17 16 15 15 16 15 15 13 11 9 11 13 15 17 18 16 16 18 18 17 17 16 15 13 13 13 12 10 9 8 7 6 6 5 4 4 3 2 2 1 2 2 1 1 1 3 4 5 5 4 5 5 6 6 7 7 8 9 9 10 10 10 11 11 12 13 14 16 17
6 7 8 8 9 11 13 15 16 14 14 13 12 13 17 18 18 18 18 17 17 16 13 12 12 10 9 9 10 12 13 14 15 15 16 16 16 16 16 16 14 14 14 13 11 9 8 6 5 5 4 3 3 2 1 1 0 1 1 2 2 2 3 4 5 5 5 6 7 7 8 8 9 9 10 10 10 10 10 11 11 12 13 13 15 17
9 9 8 8 8 11 14 14 12 12 12 8 3 4 9 13 14 15 15 15 15 12 10 11 11 11 10 8 9 11 11 11 11 9 9 10 11 13 15 15 15 14 13 12 10 8 7 5 4 3 2 2 1 1 1 1 1 2 2 2 2 3 4 5 5 6 6 7 8 8 9 9 9 10 10 11 11 11 11 12 12 13 13 13 14 16
9 9 8 8 8 10 11 11 11 12 10 6 3 2 4 7 9 10 11 12 11 9 10 12 11 11 10 9 10 12 12 11 10 9 10 10 11 12 15 16 15 14 14 12 10 7 5 3 3 1 1 1 2 3 3 2 2 3 3 3 4 5 5 6 6 7 8 9 9 9 9 9 10 10 11 11 12 12 12 13 13 14 14 14 14 15
10 9 8 8 9 9 9 9 11 11 7 6 7 5 3 5 7 8 10 10 6 6 8 10 9 8 8 9 9 9 11 11 11 9 8 6 6 8 11 13 11 12 14 13 10 7 6 4 3 2 2 3 4 4 4 4 5 5 5 6 6 7 7 7 8 9 9 9 10 10 10 10 10 11 12 12 12 13 13 13 14 14 14 14 14 14
10 9 8 8 9 8 9 10 10 11 11 9 5 2 2 4 5 5 8 8 4 3 6 7 7 7 7 9 10 9 10 10 9 5 0 2 1 2 2 2 2 5 8 10 9 9 8 6 4 3 3 4 5 6 6 7 7 7 7 8 8 8 8 9 9 10 10 10 11 10 10 10 11 11 12 13 13 14 14 14 14 14 14 15 15 15
10 10 9 9 8 7 9 10 8 10 10 4 2 5 5 4 4 4 7 6 2 2 6 7 8 8 8 9 10 10 10 9 7 3 2 4 2 1 3 2 0 2 4 7 9 9 8 5 4 4 5 6 8 9 9 9 9 9 10 10 10 10 10 10 11 11 12 12 12 11 11 11 12 12 13 14 14 15 15 15 15 15 15 15 16 16
11 10 9 9 8 8 9 9 8 9 5 3 5 4 5 5 5 5 7 5 3 6 9 9 8 8 8 9 10 10 9 7 4 2 4 2 1 2 4 5 6 6 6 7 8 8 7 6 6 8 9 9 10 10 10 10 10 11 12 11 11 11 12 12 13 13 14 14 14 14 14 14 14 15 16 17 17 17 17 16 16 15 15 15 15 15
10 8 8 9 9 9 9 8 7 7 2 4 3 2 4 5 5 5 8 3 4 5 7 9 9 9 10 11 11 9 9 7 4 1 3 4 6 8 9 9 10 11 11 11 11 10 9 9 10 11 11 11 11 11 12 12 12 13 14 13 13 13 14 14 15 15 16 16 16 15 15 15 16 16 17 18 19 19 18 17 16 16 15 15 16 15
6 6 6 8 9 9 10 9 8 5 2 5 3 3 3 3 3 6 6 3 5 6 7 8 10 11 11 12 11 9 10 11 9 7 8 9 11 12 12 13 13 14 14 14 14 12 12 13 14 14 13 13 14 14 13 14 14 15 15 14 14 14 14 15 16 17 17 17 18 18 17 17 17 17 18 20 20 20 19 17 16 16 16 16 16 14
5 4 5 7 8 8 8 8 9 5 3 6 5 5 4 5 5 4 6 7 8 11 11 12 13 14 14 15 15 15 16 16 16 15 15 16 17 16 16 17 17 17 17 16 15 15 15 16 16 16 16 15 15 15 15 15 16 16 16 15 15 15 16 16 17 18 18 18 19 19 19 18 18 19 20 23 24 22 20 17 16 15 16 16 16 17
4 5 6 7 7 7 8 9 9 5 2 6 7 4 2 3 6 9 12 12 12 13 14 16 16 16 16 17 18 19 20 20 20 19 19 20 21 21 20 20 20 21 20 19 18 18 18 18 18 18 18 17 17 17 17 17 18 18 17 17 17 16 17 18 18 19 19 20 20 20 19 19 19 19 20 22 23 22 20 17 16 16 16 15 14 17
4 6 6 5 3 5 7 7 3 1 2 7 8 6 6 8 11 14 15 16 16 17 18 18 18 18 18 18 19 20 21 20 20 20 21 22 22 23 23 23 23 24 24 23 23 22 21 21 21 21 20 19 18 18 18 18 19 19 19 19 19 19 19 19 19 20 21 21 20 20 20 20 20 19 19 19 18 18 18 17 16 16 17 16 15 16
3 4 5 5 4 5 7 8 8 9 12 14 12 11 13 14 14 16 17 19 20 20 19 19 20 20 20 20 22 23 23 23 23 22 23 24 24 25 26 26 27 27 27 26 26 25 24 24 23 22 22 21 20 19 19 20 20 21 22 21 20 20 21 20 20 21 21 21 21 20 20 20 19 19 19 17 16 16 17 17 17 16 16 17 16 16
3 5 6 5 6 9 12 13 15 16 16 15 14 15 16 17 18 18 19 20 20 19 19 20 21 22 23 23 24 25 26 26 26 26 27 27 27 28 28 29 29 29 29 29 28 27 26 25 24 23 23 23 22 22 22 21 22 23 23 23 22 21 21 21 21 22 21 21 21 20 20 20 20 21 20 19 19 18 17 17 17 17 16 16 16 15
4 5 5 7 7 9 9 10 12 14 15 16 17 18 18 19 19 19 19 19 19 19 20 22 23 25 26 26 27 28 29 29 29 29 29 28 29 29 30 30 30 30 30 30 29 28 27 26 24 24 24 24 24 23 22 22 23 23 23 22 22 22 22 22 23 23 22 21 21 20 20 21 21 22 21 21 21 19 16 15 17 17 17 19 19 14
4 6 4 8 9 9 10 12 16 18 19 19 18 18 18 18 18 18 18 19 20 21 23 25 26 27 27 27 28 29 30 30 31 31 31 30 30 30 30 30 30 29 29 29 28 28 28 27 26 25 25 25 24 23 23 24 24 24 24 24 23 23 23 24 24 24 24 23 22 21 21 20 21 22 21 20 19 16 15 16 18 18 19 18 16 15
6 5 6 8 8 9 11 13 15 16 15 16 16 17 17 19 20 20 21 21 23 24 25 25 25 24 24 25 25 26 28 29 29 30 32 32 32 31 30 30 30 29 29 29 28 27 27 28 27 27 26 26 25 25 25 25 25 25 24 24 24 24 25 25 26 26 25 24 23 23 21 20 19 19 20 19 17 16 16 16 16 16 16 14 15 19
7 7 6 7 8 8 9 11 13 11 11 14 18 19 20 21 22 23 23 23 24 24 23 24 23 22 22 23 23 23 26 27 27 28 29 30 30 31 30 30 29 29 28 27 27 27 27 27 27 26 27 26 25 25 25 25 25 25 25 25 25 25 25 26 26 25 25 24 24 23 22 20 18 18 19 19 18 17 17 15 14 15 16 18 22 26
5 7 8 8 9 10 13 17 18 15 14 17 21 22 22 22 22 22 22 22 22 23 23 24 25 25 25 24 24 24 26 27 27 27 27 27 27 28 27 27 27 27 26 25 25 26 26 27 26 26 26 26 26 26 26 26 26 25 24 24 24 24 24 24 24 24 24 23 22 21 20 20 20 21 19 17 16 17 17 15 16 17 18 22 26 26
Wind_Direction
231 234 230 231 263 34 33 342 346 340 328 321 301 259 247 224 214 208 127 119 245 252 247 232 220 249 251 234 232 194 203 233 224 204 206 213 217 215 216 224 190 162 167 182 189 192 196 192 175 168 177 181 181 178 176 176 174 175 178 181 185 186 184 172 158 155 156 154 151 142 136 135 128 123 116 105 106 122 140 148 164 175 192 224 233 236
234 248 240 236 41 30 9 346 332 315 301 283 275 267 252 239 232 215 127 133 197 246 254 242 229 252 254 235 228 209 210 228 225 210 209 210 215 219 214 224 210 165 163 181 190 192 196 191 179 176 182 186 186 184 182 182 182 181 182 185 186 185 183 175 164 165 168 159 154 145 138 136 127 121 114 110 119 135 255 239 233 238 231 239 249 237
218 240 228 109 53 16 323 296 280 277 275 260 252 257 251 236 227 130 118 165 190 229 256 248 228 237 251 242 213 203 220 230 224 214 211 211 212 217 213 217 222 188 173 179 185 193 197 193 188 186 186 188 188 187 188 189 188 186 187 188 188 185 183 183 171 164 173 168 160 148 140 134 130 148 150 141 132 104 46 36 38 326 189 100 345 297
228 230 148 106 83 240 229 237 244 250 249 249 244 247 249 237 236 185 148 201 219 248 276 281 267 248 256 251 217 206 223 225 217 214 210 211 213 215 214 211 217 217 193 175 178 196 196 192 195 194 191 190 191 193 194 195 194 191 190 191 192 186 183 190 178 167 184 188 176 164 156 149 151 167 156 133 117 102 73 56 56 53 83 107 103 58
260 83 102 113 143 227 235 218 226 249 237 231 242 252 259 250 259 270 173 172 232 237 256 275 269 247 241 238 223 208 214 215 205 210 209 206 211 213 217 218 214 223 214 186 185 203 198 191 196 199 197 194 194 198 198 197 198 196 193 193 195 189 185 194 187 179 189 193 184 171 163 156 152 143 122 113 104 89 74 61 57 57 70 94 103 91
254 92 123 175 194 227 242 230 219 242 252 232 224 239 269 277 274 262 218 187 242 235 207 233 256 252 237 230 226 201 195 209 207 208 206 198 203 206 210 221 220 222 226 207 198 205 203 196 198 202 203 201 200 201 201 200 202 201 196 195 198 193 189 194 192 187 186 183 180 166 153 148 144 134 126 131 122 103 96 83 69 62 64 74 86 91
127 117 182 194 229 234 236 247 226 219 255 260 207 210 247 268 254 245 246 230 253 261 166 198 260 270 247 223 215 199 198 209 206 206 208 200 201 206 208 213 217 216 220 220 211 209 210 205 202 203 204 207 207 205 204 204 206 207 200 198 201 195 193 195 191 185 181 179 175 163 154 151 146 141 144 147 137 129 129 114 90 71 62 63 68 75
139 152 198 199 232 240 234 247 220 203 248 278 48 219 229 248 239 232 247 242 257 273 183 194 240 262 264 233 190 190 211 212 197 196 209 207 203 209 213 212 214 215 215 219 216 215 220 215 209 207 205 209 211 210 210 209 210 211 205 202 202 198 197 196 190 187 182 178 171 163 161 157 152 154 158 153 147 145 139 125 103 83 70 66 63 62
191 187 204 215 227 237 242 246 190 196 245 263 328 264 247 248 239 230 245 247 256 269 244 224 234 249 259 240 182 178 217 226 199 187 200 205 206 208 216 220 220 229 236 236 224 217 221 218 215 213 207 206 207 210 215 214 214 213 208 205 204 202 201 195 192 190 186 180 174 170 167 161 159 163 160 153 153 155 147 137 126 117 105 84 75 69
198 203 219 223 228 236 245 265 156 197 242 278 289 263 254 250 241 235 244 251 252 251 256 248 232 242 259 247 201 183 225 243 201 179 193 189 192 197 208 255 257 250 253 258 251 236 228 221 219 216 210 205 201 206 215 218 218 215 211 208 204 203 202 197 196 194 188 184 178 175 173 168 165 163 159 158 162 163 155 150 142 136 131 102 87 80
161 178 242 238 244 260 273 308 261 234 261 279 270 248 241 242 242 244 247 256 256 240 244 244 228 233 253 253 226 180 204 260 162 160 182 183 177 151 96 284 290 300 296 290 277 265 251 231 221 216 211 205 198 199 208 217 221 218 214 211 205 203 204 200 199 196 190 187 182 180 179 172 170 168 164 166 170 165 160 160 154 146 147 142 117 93
181 186 214 215 232 263 276 261 236 236 252 255 251 243 236 235 235 240 239 240 250 253 255 246 225 226 247 262 229 132 130 133 148 164 178 195 178 79 31 338 355 347 326 318 309 297 275 243 221 212 206 202 197 194 197 210 220 220 217 214 206 202 205 204 201 197 192 190 185 184 184 179 179 180 174 174 176 170 168 170 164 162 165 171 173 131
217 216 204 184 202 239 253 244 214 207 231 239 239 241 241 238 234 236 235 227 240 252 269 253 221 227 252 260 130 135 140 136 158 180 141 142 45 34 12 10 18 6 357 348 337 330 303 253 220 208 201 195 193 193 191 200 215 218 216 215 208 203 205 205 203 198 195 194 189 186 188 186 187 190 185 183 185 178 175 176 173 171 173 180 192 202
227 220 197 181 187 211 235 244 218 195 218 235 236 235 240 240 240 244 241 238 240 231 212 270 260 246 257 232 131 145 132 123 153 148 104 98 75 43 16 26 32 25 26 23 13 5 347 282 215 203 196 191 188 192 193 196 209 214 212 209 204 204 206 206 205 202 197 196 193 189 190 190 193 197 192 189 191 187 180 180 181 176 178 188 199 221
260 230 192 193 155 176 226 249 258 256 234 240 243 237 243 249 251 258 262 265 271 255 202 182 196 255 252 158 130 143 139 146 158 145 126 115 104 82 61 51 47 45 44 43 40 33 27 44 175 188 189 191 191 194 196 196 200 204 204 201 197 201 207 206 206 205 201 199 198 193 191 192 196 200 198 193 194 195 188 184 187 181 183 192 198 219
272 255 163 170 157 189 236 249 267 276 254 238 246 239 240 246 250 263 275 277 298 307 251 200 213 260 194 143 156 149 148 155 153 149 142 125 114 98 81 66 55 53 52 53 55 51 54 74 114 155 171 184 191 195 195 194 195 193 195 195 193 197 205 207 209 209 204 201 201 199 195 194 196 200 202 197 197 203 197 189 190 187 187 191 194 213
266 259 132 163 211 221 254 273 258 261 264 247 239 244 258 261 259 268 268 252 239 265 259 234 240 246 171 165 171 168 169 163 161 166 151 129 120 106 87 73 62 58 59 61 63 59 61 77 99 126 151 166 171 180 185 186 188 188 189 191 191 193 198 204 208 209 207 205 204 204 201 198 199 201 204 203 202 207 207 200 196 192 192 192 193 212
272 274 205 217 227 191 215 276 258 247 262 271 257 270 284 268 262 269 271 255 241 256 254 243 249 245 238 211 169 179 192 178 179 174 151 144 133 112 97 85 73 66 66 69 72 68 66 76 89 108 130 144 147 151 159 165 172 183 189 188 189 190 191 197 203 206 208 207 207 208 207 206 207 207 208 209 207 208 211 210 205 199 198 196 195 213
275 274 259 245 237 175 179 249 256 240 237 251 274 298 290 262 253 246 256 263 261 267 267 258 260 254 252 221 163 191 203 182 182 175 162 163 142 119 106 95 84 76 72 72 77 75 75 82 89 100 110 118 124 124 127 134 145 161 172 176 181 185 186 194 200 203 208 211 211 214 215 214 217 218 217 216 215 214 214 215 215 208 204 204 201 212
240 267 269 247 227 210 214 233 246 239 221 229 256 268 256 258 271 264 256 260 262 265 268 272 270 259 267 220 164 195 205 185 180 178 172 159 134 122 111 102 93 84 78 76 80 81 85 90 95 103 106 105 108 111 116 123 133 143 154 164 173 180 185 193 202 204 209 213 216 219 221 220 221 223 224 224 224 224 223 222 223 219 214 218 217 220
249 257 271 261 233 231 245 241 258 271 241 227 241 246 243 247 264 271 266 263 267 269 270 275 270 258 346 8 201 208 197 179 179 178 163 143 131 121 107 104 99 92 85 81 83 85 88 91 94 99 101 109 120 123 121 121 127 131 139 152 161 170 179 194 207 212 216 216 218 223 224 222 224 226 227 227 228 229 231 231 232 229 222 222 226 230
258 257 261 265 256 246 250 270 310 309 303 278 268 266 263 259 258 264 263 257 262 269 271 276 277 284 47 12 296 258 196 171 175 171 152 140 134 121 109 107 103 99 96 89 88 87 87 89 89 90 92 103 120 127 129 133 137 135 133 145 163 175 177 181 190 202 223 230 228 229 227 225 228 232 233 233 233 234 236 237 239 239 231 225 226 231
4 285 269 265 263 267 275 277 269 291 293 283 277 277 279 278 271 268 270 274 278 278 278 280 280 292 63 62 308 274 175 165 172 163 147 140 132 123 118 114 108 106 104 99 95 93 90 90 89 91 92 93 96 105 116 129 139 142 147 153 161 175 184 188 186 184 203 229 237 236 233 232 233 235 238 241 243 242 244 246 243 238 236 233 230 230
90 261 260 264 263 264 269 259 229 233 267 270 265 264 265 266 268 272 281 293 289 277 275 276 270 255 88 66 80 94 125 155 168 161 151 144 136 130 126 121 118 114 111 107 104 101 98 96 93 91 90 89 89 89 90 95 105 118 133 144 149 162 181 193 196 199 216 236 242 235 229 230 233 236 237 239 243 244 250 256 251 244 244 241 237 234
176 251 249 263 267 255 251 248 233 223 241 259 263 257 254 263 278 282 284 287 274 267 268 268 270 256 116 153 128 126 148 160 165 167 159 152 147 143 136 131 128 124 120 116 112 108 106 102 98 94 90 90 90 89 88 88 85 86 92 101 110 128 158 174 196 236 242 239 239 232 227 231 237 238 237 238 242 243 249 261 258 250 247 241 239 240
270 268 265 264 266 261 257 257 260 260 260 268 275 266 254 257 277 281 278 270 261 266 268 263 269 252 138 183 189 166 178 173 167 169 164 161 161 155 146 143 140 136 134 129 121 116 112 106 103 100 96 94 94 92 91 89 85 86 93 96 95 100 111 114 128 185 204 205 206 208 213 233 247 249 248 248 251 249 250 256 255 250 248 247 247 248
272 265 265 263 263 270 277 286 300 307 290 278 280 279 269 257 261 266 268 265 268 277 271 262 270 270 229 216 211 198 207 198 178 177 180 176 170 163 156 154 154 149 146 142 134 128 120 113 108 104 101 97 97 96 95 95 94 95 98 99 102 117 127 123 129 159 186 191 187 189 203 236 261 270 267 255 256 258 255 254 251 249 253 255 253 251
267 259 256 260 262 268 276 284 289 288 283 281 279 276 272 266 263 261 260 265 277 281 270 267 276 275 268 261 243 215 218 229 214 201 205 196 178 173 168 163 165 165 161 157 152 143 133 123 115 109 105 102 101 101 98 98 98 98 98 96 90 95 138 158 168 193 218 228 233 245 257 261 265 277 281 268 258 258 258 257 256 256 260 258 251 248
268 263 258 263 263 263 267 270 274 275 275 276 275 270 268 267 267 266 264 266 270 267 269 282 289 283 279 281 276 252 223 233 237 223 217 210 197 193 186 181 186 188 183 173 162 153 143 134 125 116 110 104 103 104 102 98 96 96 96 91 83 71 54 50 119 216 274 296 298 286 271 261 259 263 267 268 264 261 262 265 269 269 265 256 247 244
269 270 267 272 272 271 271 270 272 274 273 271 269 267 265 263 263 264 264 265 266 265 268 278 283 282 281 280 278 273 249 241 245 238 229 223 218 211 204 205 210 208 203 190 169 156 144 135 129 121 115 109 105 104 104 102 97 98 99 89 75 55 32 11 355 347 340 339 333 323 307 286 276 267 262 267 272 272 273 276 276 273 266 256 247 243
219 272 277 280 277 275 277 278 276 273 272 271 267 264 263 262 261 261 262 263 264 266 271 275 278 279 282 279 272 268 262 256 253 248 241 234 229 223 216 220 225 221 215 201 176 161 151 140 132 123 116 111 109 107 108 108 102 105 105 89 65 26 345 327 324 327 324 321 318 315 309 297 290 283 275 275 278 278 279 278 274 268 264 261 257 252
218 266 277 275 271 269 271 273 273 273 274 271 267 264 263 262 262 262 263 264 265 268 275 278 275 273 279 280 275 271 269 263 256 254 253 246 237 231 228 229 227 221 216 207 188 169 158 148 137 127 119 113 112 108 102 103 112 131 122 75 32 334 325 328 328 327 322 312 309 307 300 291 284 281 279 277 277 278 278 273 270 268 264 263 263 262
246 263 274 272 270 271 271 273 277 280 277 273 273 273 268 266 266 264 262 263 266 269 271 270 268 275 289 294 287 281 280 277 269 265 264 258 246 239 236 231 227 221 216 210 197 176 163 154 138 130 129 124 124 128 121 104 168 198 250 307 316 317 325 329 323 314 309 307 306 302 296 291 288 286 283 282 281 281 279 276 274 271 266 262 259 261
260 266 272 271 270 272 276 281 284 272 261 262 292 309 287 280 275 271 271 273 273 276 285 287 286 287 289 294 294 287 287 292 290 283 279 269 253 243 238 235 235 229 216 206 194 181 170 159 145 137 139 147 169 241 270 274 255 264 293 305 299 301 306 308 306 301 299 300 299 297 293 292 290 287 286 287 286 284 283 280 276 271 267 263 257 257
260 262 264 266 266 272 278 277 266 258 258 266 278 297 305 298 291 287 285 283 283 290 296 295 294 292 287 293 304 301 295 292 284 277 278 271 258 249 245 245 240 222 208 205 200 194 188 179 179 185 200 220 256 283 289 280 270 276 285 279 280 290 297 298 297 293 293 294 293 292 291 288 286 286 287 289 288 288 285 280 276 272 266 263 258 255
255 258 261 262 261 265 268 256 251 263 274 258 245 244 251 263 272 278 274 271 281 302 301 298 299 299 293 293 299 302 304 296 278 272 283 279 261 253 251 250 236 211 208 215 218 224 238 240 233 234 243 258 272 278 274 272 275 279 277 274 279 286 286 287 288 287 287 287 289 290 287 284 284 286 287 289 288 285 283 279 275 271 264 262 259 252
248 252 253 257 258 258 260 257 258 272 272 251 245 312 340 289 292 299 286 280 279 290 298 305 306 303 299 296 295 299 307 302 281 259 211 79 18 335 318 284 207 196 214 225 232 243 250 251 252 253 257 267 269 269 273 277 278 277 276 275 276 276 279 282 284 284 284 285 287 286 281 282 285 287 288 290 288 285 282 279 274 270 264 260 257 253
244 249 250 251 254 253 260 264 260 263 266 255 92 59 45 13 352 332 291 285 310 336 313 304 295 299 305 303 302 302 301 294 279 249 149 143 163 0 0 0 89 209 232 236 243 251 254 255 260 266 274 277 274 274 275 274 273 273 272 272 272 272 275 277 279 281 283 285 286 283 280 280 281 284 286 287 287 285 282 278 275 270 263 258 256 254
247 245 246 249 253 250 252 259 256 258 271 70 85 66 49 31 11 333 283 276 47 30 358 341 326 325 322 307 301 300 292 284 289 353 26 31 270 275 290 278 259 258 264 259 259 263 267 272 278 282 282 278 274 274 273 270 271 270 268 267 267 268 271 274 277 280 280 282 284 281 279 279 280 283 286 287 288 286 281 277 274 268 262 258 257 254
246 241 239 243 248 248 249 254 257 259 276 74 75 32 22 15 355 302 273 281 58 29 359 352 340 333 329 315 305 293 282 283 292 344 353 325 297 286 284 277 269 269 271 268 268 274 280 283 285 285 282 276 274 275 273 272 271 267 265 264 263 264 267 271 274 277 278 281 282 279 278 278 279 282 286 289 290 287 282 276 270 264 259 255 254 255
247 240 244 247 247 247 249 254 259 260 45 55 36 1 348 320 282 264 272 341 9 319 316 325 312 305 309 308 303 292 285 292 296 287 282 280 276 278 281 280 278 277 275 274 275 280 284 284 283 281 278 276 276 276 272 269 267 263 263 262 261 262 266 269 272 275 277 278 278 276 276 275 275 277 281 284 285 285 283 276 267 261 256 251 248 247
252 241 244 247 250 251 252 259 263 260 52 36 347 316 300 269 255 290 323 331 318 305 309 309 301 297 296 294 294 291 287 288 288 286 286 284 280 278 278 278 279 280 281 282 283 284 283 281 279 277 275 274 273 271 269 266 264 263 263 262 263 266 268 270 271 272 274 275 274 274 272 270 270 272 276 280 284 284 280 273 265 258 252 248 242 235
263 260 248 240 247 256 254 256 260 254 44 10 336 320 302 284 312 333 328 314 306 306 305 300 296 296 295 294 295 294 292 291 290 288 287 285 284 282 280 279 279 280 282 286 287 286 285 282 279 277 276 274 272 269 269 266 264 265 264 263 266 270 271 272 272 271 273 273 271 270 268 266 266 266 269 276 281 282 278 270 261 254 248 242 232 226
260 260 263 263 273 265 249 250 265 331 323 319 317 306 297 302 312 315 309 302 301 301 297 294 293 292 293 294 296 295 294 292 291 290 288 285 283 282 281 279 278 279 280 283 286 287 286 283 281 278 276 274 272 270 269 268 268 268 267 267 270 272 271 270 269 270 272 271 270 269 266 263 263 263 264 268 273 276 273 265 257 251 241 230 224 227
260 274 287 296 301 285 270 277 302 304 296 297 299 294 293 295 296 297 295 292 292 293 293 293 292 291 292 291 291 290 289 287 286 286 285 283 281 281 282 281 280 280 280 280 282 284 283 282 280 280 278 276 275 274 273 272 271 270 269 269 270 270 269 268 267 267 267 267 267 266 264 263 262 261 261 264 267 268 266 260 254 241 225 222 230 235
320 316 297 293 295 290 280 277 285 292 295 297 296 293 294 294 293 293 290 287 288 291 293 293 292 292 292 290 288 287 285 284 284 283 282 281 280 280 280 280 281 282 281 281 281 281 281 281 281 280 278 278 276 276 275 273 271 270 270 269 268 266 265 264 264 263 263 263 264 263 263 263 262 262 263 263 261 261 263 260 250 234 226 236 242 231
36 16 309 280 282 286 282 281 288 293 293 293 293 293 292 290 289 290 289 290 293 294 293 292 291 290 289 287 286 286 284 283 282 281 280 280 279 278 278 277 277 278 279 279 280 280 281 282 281 280 279 278 277 275 274 273 271 270 269 268 266 264 263 262 260 259 259 260 261 261 262 262 262 263 262 259 259 260 258 252 245 243 248 250 239 215
46 39 322 282 277 280 285 290 291 289 287 287 288 288 290 293 299 302 299 296 296 295 292 290 288 287 287 286 284 285 286 285 282 281 280 280 279 278 278 277 277 277 278 279 280 280 280 280 280 281 280 279 277 275 274 272 271 270 269 267 265 263 261 259 257 257 258 258 258 260 262 262 261 260 256 255 258 258 250 248 252 255 252 241 221 198
296 308 301 294 290 285 284 288 291 290 289 290 290 294 302 307 309 308 302 296 294 293 291 290 288 286 287 287 286 286 286 285 284 282 280 279 279 278 278 279 280 280 280 280 281 280 279 280 280 280 279 278 278 277 275 273 271 269 266 265 264 263 260 258 257 257 257 256 256 257 257 257 257 256 252 247 246 244 245 249 248 240 226 206 189 184
281 285 293 295 289 282 287 301 310 308 298 296 299 305 309 309 306 304 302 300 298 298 298 297 296 294 292 291 290 288 287 287 287 285 282 279 278 278 279 280 281 281 281 281 282 281 281 281 281 281 280 280 280 278 276 273 270 268 266 265 263 261 259 258 256 254 252 251 251 252 252 251 249 249 246 242 238 241 244 236 218 209 203 187 174 170
293 307 310 301 291 290 297 306 310 306 296 295 300 304 305 306 306 306 305 305 304 304 304 303 302 300 297 295 293 290 289 290 290 288 285 282 280 280 281 281 282 283 284 284 283 283 283 283 283 282 281 281 281 279 277 274 271 268 266 264 261 259 258 256 254 252 249 247 245 246 247 246 242 237 233 230 231 236 233 212 186 174 169 163 160 158
Height
1474 1474 1471 1467 1463 1461 1462 1462 1464 1463 1461 1458 1454 1453 1449 1449 1450 1445 1449 1457 1456 1460 1458 1452 1454 1454 1451 1453 1453 1456 1463 1464 1463 1464 1466 1467 1468 1468 1469 1470 1473 1478 1482 1486 1488 1492 1497 1498 1495 1493 1494 1496 1498 1500 1502 1504 1506 1508 1509 1511 1512 1513 1515 1515 1517 1518 1519 1520 1521 1521 1522 1522 1522 1523 1522 1523 1523 1522 1522 1522 1522 1522 1522 1522 1522 1523
1475 1476 1467 1461 1463 1465 1465 1466 1467 1467 1466 1464 1461 1458 1452 1450 1450 1444 1449 1457 1458 1463 1460 1451 1453 1456 1455 1454 1455 1458 1463 1463 1462 1463 1465 1466 1468 1468 1469 1470 1471 1475 1481 1485 1488 1491 1495 1495 1491 1491 1493 1495 1497 1499 1501 1503 1505 1507 1509 1510 1512 1513 1514 1516 1517 1519 1519 1520 1521 1521 1522 1523 1523 1523 1523 1523 1523 1522 1521 1521 1521 1521 1522 1522 1522 1522
1475 1470 1461 1461 1465 1467 1469 1468 1469 1470 1468 1466 1463 1460 1456 1451 1449 1450 1455 1458 1458 1464 1461 1452 1454 1458 1455 1452 1454 1458 1460 1461 1461 1461 1464 1465 1466 1467 1468 1470 1471 1474 1479 1483 1486 1490 1493 1492 1489 1489 1492 1494 1496 1498 1500 1502 1504 1506 1508 1509 1511 1512 1514 1515 1516 1518 1519 1519 1520 1521 1522 1522 1523 1523 1523 1523 1522 1522 1522 1521 1521 1521 1521 1522 1522 1522
1469 1463 1458 1463 1467 1468 1470 1470 1471 1471 1468 1466 1462 1460 1458 1450 1449 1455 1459 1459 1459 1462 1461 1456 1456 1458 1457 1454 1453 1456 1458 1459 1460 1461 1463 1464 1465 1466 1468 1470 1471 1472 1475 1479 1485 1488 1490 1489 1487 1488 1491 1492 1495 1497 1498 1501 1503 1505 1507 1508 1510 1512 1513 1515 1516 1518 1518 1518 1519 1520 1520 1521 1522 1522 1522 1523 1523 1523 1522 1522 1522 1522 1521 1522 1523 1523
1462 1460 1461 1465 1468 1469 1471 1470 1471 1470 1466 1463 1460 1459 1456 1450 1450 1455 1459 1462 1463 1463 1463 1462 1464 1462 1456 1455 1452 1452 1456 1457 1459 1461 1462 1464 1465 1467 1468 1469 1471 1472 1473 1475 1480 1485 1486 1485 1485 1486 1489 1491 1493 1495 1497 1499 1501 1503 1506 1507 1509 1511 1513 1514 1515 1517 1517 1518 1519 1519 1520 1520 1521 1522 1523 1524 1524 1524 1524 1523 1523 1522 1522 1522 1523 1523
1460 1462 1464 1466 1468 1469 1469 1468 1467 1468 1465 1460 1458 1458 1457 1454 1454 1457 1460 1465 1468 1467 1461 1463 1474 1467 1449 1448 1450 1450 1455 1458 1458 1460 1461 1463 1465 1467 1469 1470 1471 1473 1474 1474 1477 1482 1483 1483 1485 1486 1487 1489 1491 1493 1495 1498 1500 1502 1504 1506 1508 1510 1511 1513 1514 1516 1517 1518 1519 1519 1520 1521 1522 1523 1524 1525 1525 1525 1525 1524 1524 1524 1523 1523 1523 1523
1461 1465 1464 1466 1469 1468 1468 1466 1462 1464 1466 1461 1457 1456 1458 1457 1458 1461 1461 1465 1470 1466 1459 1461 1475 1471 1452 1447 1450 1451 1456 1457 1457 1458 1458 1460 1463 1465 1467 1469 1471 1472 1474 1475 1476 1480 1482 1482 1484 1485 1485 1487 1489 1491 1494 1496 1498 1500 1503 1505 1507 1509 1510 1512 1513 1515 1516 1517 1518 1519 1520 1521 1523 1524 1524 1525 1525 1525 1525 1525 1525 1525 1524 1524 1524 1524
1460 1466 1466 1467 1469 1467 1467 1463 1458 1460 1465 1464 1459 1456 1458 1458 1459 1462 1461 1464 1463 1459 1459 1459 1464 1470 1462 1453 1450 1453 1456 1455 1456 1459 1459 1459 1461 1463 1465 1466 1469 1471 1473 1475 1476 1479 1481 1481 1482 1484 1485 1486 1488 1490 1492 1494 1496 1498 1501 1504 1505 1507 1509 1511 1513 1514 1515 1516 1517 1519 1520 1522 1523 1524 1524 1524 1525 1525 1525 1526 1526 1526 1525 1525 1525 1524
1461 1466 1468 1468 1469 1467 1462 1457 1455 1459 1463 1463 1460 1458 1457 1457 1458 1459 1461 1462 1459 1462 1467 1459 1457 1470 1467 1452 1448 1454 1457 1455 1456 1459 1460 1460 1462 1464 1466 1468 1470 1471 1473 1474 1475 1478 1479 1480 1481 1483 1484 1485 1486 1488 1490 1491 1494 1496 1499 1502 1504 1506 1508 1510 1512 1513 1515 1516 1517 1518 1520 1521 1523 1524 1524 1525 1525 1526 1526 1526 1526 1527 1527 1526 1526 1525
1462 1464 1465 1464 1466 1463 1456 1454 1455 1459 1462 1459 1460 1460 1457 1456 1456 1458 1461 1460 1462 1473 1475 1461 1458 1472 1469 1452 1447 1456 1459 1455 1455 1460 1461 1462 1464 1466 1468 1470 1471 1471 1473 1473 1474 1476 1477 1478 1479 1481 1482 1483 1485 1486 1488 1490 1491 1494 1497 1499 1502 1504 1506 1508 1510 1512 1514 1515 1516 1518 1519 1521 1522 1523 1524 1525 1525 1526 1526 1526 1527 1527 1527 1527 1526 1526
1459 1463 1464 1463 1463 1458 1455 1457 1457 1459 1460 1460 1461 1460 1458 1457 1457 1460 1460 1459 1469 1477 1469 1458 1455 1466 1472 1456 1445 1454 1459 1455 1455 1460 1462 1462 1464 1467 1470 1471 1471 1471 1472 1472 1473 1474 1475 1476 1477 1479 1481 1482 1483 1485 1486 1488 1489 1492 1494 1497 1500 1502 1504 1506 1508 1511 1513 1514 1515 1517 1519 1520 1522 1523 1524 1525 1525 1526 1527 1527 1527 1527 1528 1527 1527 1527
1457 1463 1463 1460 1461 1458 1458 1459 1458 1458 1459 1461 1461 1458 1462 1466 1464 1467 1464 1466 1480 1479 1461 1452 1452 1462 1472 1458 1445 1453 1457 1455 1457 1460 1463 1464 1465 1468 1471 1471 1471 1471 1472 1472 1472 1473 1474 1475 1475 1477 1479 1480 1481 1483 1484 1486 1487 1490 1492 1494 1497 1500 1502 1504 1507 1509 1511 1513 1515 1517 1518 1520 1521 1522 1523 1524 1525 1525 1526 1527 1527 1528 1528 1528 1527 1527
1458 1456 1455 1457 1459 1459 1461 1459 1457 1459 1459 1460 1459 1462 1474 1479 1479 1481 1477 1475 1481 1473 1458 1452 1456 1465 1466 1452 1448 1455 1455 1457 1459 1460 1463 1466 1468 1470 1471 1471 1471 1472 1472 1472 1472 1473 1473 1473 1474 1475 1477 1478 1480 1481 1483 1485 1486 1488 1490 1492 1495 1498 1500 1502 1505 1508 1510 1512 1514 1516 1517 1519 1520 1521 1522 1523 1524 1524 1525 1526 1527 1528 1528 1528 1527 1527
1460 1453 1449 1454 1458 1457 1459 1458 1457 1459 1460 1459 1459 1467 1478 1483 1490 1492 1483 1477 1474 1467 1459 1456 1463 1470 1461 1450 1451 1454 1456 1458 1461 1463 1466 1468 1470 1471 1471 1471 1472 1472 1473 1473 1473 1473 1473 1473 1474 1475 1476 1477 1479 1480 1482 1484 1485 1487 1488 1490 1493 1496 1498 1501 1503 1506 1508 1510 1512 1514 1516 1517 1518 1519 1520 1522 1523 1524 1525 1526 1526 1527 1528 1528 1528 1528
1465 1462 1452 1453 1456 1456 1456 1454 1453 1454 1457 1457 1454 1460 1469 1472 1483 1488 1480 1477 1472 1466 1463 1464 1471 1471 1462 1458 1455 1453 1457 1459 1461 1464 1467 1468 1470 1471 1472 1472 1473 1473 1474 1474 1474 1474 1474 1474 1474 1475 1476 1477 1479 1480 1482 1483 1484 1485 1487 1489 1492 1495 1497 1499 1502 1504 1507 1509 1511 1513 1515 1517 1518 1519 1520 1521 1522 1523 1524 1525 1526 1526 1528 1528 1528 1527
1466 1462 1451 1452 1455 1455 1455 1452 1450 1453 1457 1455 1450 1455 1463 1461 1466 1473 1473 1471 1472 1473 1469 1467 1468 1459 1454 1458 1455 1454 1458 1458 1461 1464 1465 1468 1469 1470 1472 1473 1473 1474 1475 1475 1475 1475 1475 1475 1475 1476 1476 1478 1479 1480 1481 1483 1484 1485 1487 1489 1492 1494 1496 1499 1501 1503 1505 1507 1509 1511 1513 1515 1517 1518 1519 1520 1521 1521 1522 1524 1524 1525 1527 1527 1527 1527
1468 1460 1449 1454 1455 1452 1454 1453 1451 1457 1458 1455 1455 1459 1457 1450 1455 1467 1471 1467 1473 1483 1474 1464 1462 1454 1454 1458 1453 1455 1458 1457 1461 1463 1463 1468 1469 1471 1473 1473 1475 1475 1476 1476 1476 1476 1476 1476 1476 1477 1477 1478 1479 1480 1481 1482 1483 1485 1486 1488 1491 1494 1496 1498 1500 1502 1504 1506 1508 1510 1512 1514 1516 1517 1518 1519 1521 1520 1521 1522 1523 1524 1525 1526 1526 1526
1467 1464 1452 1452 1454 1451 1454 1456 1452 1453 1455 1455 1458 1456 1451 1449 1452 1461 1472 1474 1476 1481 1469 1459 1461 1459 1460 1461 1454 1454 1458 1458 1460 1461 1463 1468 1468 1471 1473 1474 1476 1476 1477 1478 1477 1478 1478 1477 1478 1478 1478 1479 1479 1480 1481 1482 1483 1484 1486 1488 1491 1493 1496 1498 1499 1501 1503 1505 1507 1509 1510 1512 1514 1516 1517 1518 1520 1520 1520 1520 1521 1522 1523 1524 1525 1524
1465 1471 1458 1447 1451 1452 1452 1458 1457 1452 1451 1454 1454 1450 1454 1464 1464 1462 1472 1480 1481 1482 1473 1462 1458 1456 1455 1455 1454 1456 1456 1457 1459 1460 1464 1466 1467 1471 1473 1474 1477 1477 1478 1478 1478 1479 1479 1479 1479 1479 1479 1480 1479 1479 1480 1481 1483 1485 1486 1489 1491 1493 1495 1497 1500 1501 1502 1504 1506 1508 1509 1511 1513 1514 1516 1517 1518 1519 1519 1520 1520 1521 1521 1522 1523 1522
1464 1474 1466 1449 1448 1452 1452 1456 1459 1453 1449 1450 1452 1450 1452 1460 1462 1461 1463 1468 1473 1478 1475 1468 1463 1457 1449 1446 1450 1455 1453 1455 1459 1460 1463 1465 1468 1471 1473 1475 1477 1478 1479 1479 1479 1480 1480 1480 1480 1480 1480 1480 1479 1479 1479 1481 1484 1485 1487 1489 1491 1493 1495 1497 1499 1501 1502 1503 1505 1507 1508 1510 1511 1513 1514 1515 1517 1517 1518 1519 1520 1520 1520 1519 1520 1520
1464 1471 1471 1457 1450 1455 1457 1454 1454 1451 1449 1451 1454 1454 1454 1453 1455 1458 1458 1456 1462 1469 1471 1473 1470 1458 1449 1446 1447 1449 1450 1453 1457 1459 1462 1466 1470 1473 1474 1476 1477 1478 1480 1480 1480 1481 1481 1482 1482 1481 1480 1479 1478 1478 1478 1481 1483 1485 1488 1489 1491 1493 1495 1497 1499 1500 1502 1503 1504 1505 1507 1509 1509 1511 1512 1513 1514 1515 1517 1518 1520 1521 1520 1518 1518 1518
1467 1469 1472 1466 1458 1457 1453 1448 1449 1450 1450 1451 1453 1452 1454 1454 1456 1465 1465 1456 1454 1460 1463 1468 1468 1458 1452 1450 1448 1448 1449 1452 1456 1459 1464 1468 1471 1474 1475 1477 1478 1479 1480 1481 1481 1482 1482 1483 1483 1482 1482 1480 1480 1479 1478 1479 1481 1483 1486 1488 1490 1492 1494 1495 1497 1498 1501 1502 1504 1504 1506 1507 1507 1508 1510 1511 1512 1513 1515 1516 1518 1519 1520 1518 1518 1517
1470 1471 1472 1469 1462 1456 1449 1447 1451 1453 1452 1452 1453 1451 1452 1454 1456 1466 1469 1461 1458 1459 1456 1459 1465 1463 1457 1452 1450 1450 1450 1453 1458 1461 1465 1470 1473 1475 1476 1478 1479 1480 1481 1481 1482 1483 1483 1484 1484 1484 1484 1483 1482 1481 1481 1481 1481 1482 1484 1486 1488 1490 1493 1495 1495 1495 1498 1501 1503 1504 1504 1505 1506 1506 1508 1509 1511 1513 1513 1513 1514 1516 1517 1518 1518 1518
1474 1475 1475 1471 1461 1452 1447 1446 1447 1450 1454 1456 1454 1452 1453 1454 1454 1458 1460 1460 1464 1464 1461 1465 1468 1465 1461 1455 1453 1454 1454 1457 1461 1463 1467 1471 1473 1475 1477 1478 1480 1480 1481 1482 1482 1483 1484 1484 1485 1485 1485 1485 1484 1484 1483 1484 1484 1484 1484 1485 1487 1488 1492 1494 1494 1493 1496 1500 1503 1503 1503 1504 1504 1505 1505 1506 1509 1511 1511 1511 1512 1513 1513 1515 1517 1517
1476 1474 1473 1474 1470 1463 1457 1452 1450 1451 1455 1457 1455 1453 1451 1451 1454 1457 1458 1461 1467 1465 1463 1469 1468 1463 1463 1460 1457 1458 1459 1460 1462 1464 1468 1471 1473 1475 1477 1478 1480 1481 1482 1483 1483 1484 1484 1485 1485 1485 1486 1486 1486 1486 1486 1486 1486 1484 1484 1486 1487 1489 1491 1492 1490 1489 1495 1502 1503 1502 1503 1502 1502 1503 1502 1503 1505 1507 1509 1510 1510 1509 1509 1510 1513 1514
1477 1473 1472 1477 1478 1475 1469 1462 1457 1456 1457 1457 1456 1453 1451 1452 1458 1464 1466 1469 1470 1463 1460 1464 1462 1460 1463 1462 1459 1460 1460 1461 1463 1465 1467 1470 1473 1474 1476 1478 1480 1481 1482 1483 1483 1484 1484 1485 1485 1486 1486 1487 1487 1488 1487 1487 1487 1486 1487 1488 1490 1492 1491 1490 1488 1489 1496 1502 1502 1501 1501 1500 1500 1501 1501 1502 1503 1504 1505 1507 1508 1507 1506 1507 1508 1509
1477 1475 1473 1474 1474 1470 1465 1458 1454 1457 1460 1460 1458 1456 1454 1455 1459 1465 1470 1471 1467 1463 1461 1458 1456 1458 1460 1459 1460 1462 1461 1462 1464 1466 1467 1469 1471 1474 1475 1478 1479 1480 1482 1483 1484 1485 1485 1485 1486 1486 1486 1487 1488 1489 1489 1489 1489 1489 1490 1491 1491 1491 1491 1490 1491 1494 1498 1500 1499 1498 1498 1498 1499 1500 1500 1500 1501 1502 1503 1503 1504 1504 1504 1505 1506 1506
1479 1477 1474 1472 1471 1466 1462 1459 1457 1458 1460 1460 1459 1458 1458 1458 1458 1463 1469 1467 1466 1469 1465 1454 1454 1461 1459 1456 1458 1461 1462 1463 1464 1466 1468 1468 1471 1474 1475 1477 1479 1480 1482 1483 1484 1485 1485 1486 1486 1486 1487 1487 1488 1489 1489 1490 1490 1490 1491 1492 1491 1491 1491 1492 1494 1495 1497 1497 1496 1495 1494 1496 1498 1498 1498 1499 1499 1502 1502 1502 1501 1500 1501 1503 1504 1504
1479 1478 1473 1471 1469 1465 1462 1461 1459 1458 1458 1458 1459 1459 1460 1460 1460 1463 1465 1463 1465 1472 1467 1457 1458 1462 1460 1458 1458 1458 1461 1464 1464 1466 1468 1469 1471 1473 1474 1476 1478 1479 1481 1482 1483 1484 1485 1486 1486 1486 1487 1487 1488 1489 1489 1490 1490 1490 1491 1491 1492 1492 1492 1493 1494 1494 1495 1495 1494 1493 1492 1494 1495 1496 1497 1498 1498 1500 1500 1499 1498 1497 1498 1501 1502 1502
1480 1478 1473 1471 1469 1465 1462 1459 1457 1459 1459 1459 1459 1459 1459 1460 1460 1462 1462 1460 1462 1465 1462 1460 1463 1462 1459 1459 1459 1458 1461 1463 1465 1466 1467 1469 1471 1472 1473 1475 1476 1478 1480 1481 1482 1483 1484 1485 1486 1486 1487 1487 1488 1488 1489 1490 1490 1490 1491 1491 1491 1492 1492 1493 1493 1492 1493 1493 1493 1493 1493 1494 1494 1495 1496 1497 1497 1497 1496 1495 1495 1495 1497 1498 1498 1499
1481 1480 1474 1473 1473 1469 1465 1461 1459 1461 1461 1460 1459 1458 1457 1458 1459 1460 1460 1459 1461 1462 1460 1462 1466 1463 1459 1459 1459 1459 1461 1461 1463 1465 1466 1467 1469 1470 1472 1473 1475 1476 1478 1480 1482 1483 1483 1485 1485 1486 1486 1486 1487 1488 1488 1489 1490 1490 1490 1490 1491 1491 1491 1492 1492 1491 1491 1492 1492 1493 1493 1494 1495 1495 1495 1496 1496 1495 1494 1494 1494 1494 1495 1495 1496 1496
1480 1481 1475 1475 1477 1472 1466 1465 1463 1460 1459 1460 1458 1457 1457 1458 1458 1459 1458 1458 1460 1462 1463 1466 1468 1464 1460 1458 1459 1459 1459 1459 1460 1462 1464 1465 1467 1469 1471 1472 1473 1475 1476 1479 1482 1482 1483 1484 1484 1485 1486 1486 1487 1488 1488 1489 1489 1489 1489 1489 1490 1490 1490 1490 1490 1490 1490 1491 1491 1492 1493 1493 1494 1494 1494 1494 1494 1494 1493 1493 1493 1493 1493 1493 1494 1494
1477 1480 1477 1476 1478 1473 1466 1465 1463 1462 1467 1467 1461 1458 1458 1457 1457 1457 1456 1456 1457 1460 1463 1465 1463 1460 1459 1460 1461 1461 1460 1460 1460 1461 1464 1464 1465 1468 1470 1471 1472 1474 1475 1478 1481 1482 1482 1483 1483 1484 1484 1485 1486 1487 1487 1488 1488 1488 1488 1488 1489 1489 1489 1489 1489 1490 1489 1490 1490 1490 1491 1492 1492 1492 1492 1492 1492 1492 1491 1491 1491 1491 1491 1492 1492 1492
1477 1480 1479 1478 1479 1475 1469 1466 1468 1472 1474 1469 1461 1460 1461 1460 1459 1459 1458 1457 1458 1460 1462 1462 1459 1459 1461 1464 1465 1464 1463 1463 1463 1464 1465 1465 1465 1468 1469 1470 1472 1473 1476 1479 1480 1481 1481 1482 1483 1483 1483 1484 1485 1485 1486 1486 1487 1486 1486 1487 1487 1487 1488 1488 1489 1489 1488 1489 1489 1489 1490 1490 1490 1490 1490 1490 1490 1490 1489 1490 1490 1490 1490 1490 1490 1490
1478 1481 1480 1479 1479 1475 1470 1472 1478 1478 1469 1461 1460 1463 1465 1465 1464 1463 1462 1461 1461 1463 1465 1464 1462 1462 1462 1465 1467 1467 1466 1466 1466 1466 1466 1466 1467 1468 1469 1470 1471 1472 1476 1479 1480 1480 1481 1482 1482 1482 1482 1483 1483 1484 1485 1485 1485 1485 1486 1486 1486 1486 1486 1487 1487 1487 1487 1487 1488 1488 1488 1488 1488 1488 1488 1488 1488 1487 1487 1488 1488 1488 1488 1488 1488 1488
1477 1480 1480 1478 1477 1475 1473 1475 1477 1470 1459 1458 1461 1463 1465 1468 1467 1467 1467 1464 1464 1467 1468 1466 1464 1463 1464 1466 1469 1470 1469 1467 1466 1466 1467 1467 1468 1469 1470 1470 1471 1473 1476 1478 1479 1480 1482 1482 1481 1481 1481 1481 1482 1483 1484 1484 1484 1484 1484 1484 1484 1485 1485 1485 1486 1486 1486 1486 1486 1486 1486 1486 1486 1486 1486 1486 1486 1486 1486 1486 1486 1486 1486 1486 1486 1486
1473 1476 1478 1478 1476 1474 1474 1471 1468 1465 1461 1461 1464 1466 1469 1470 1470 1472 1474 1469 1467 1469 1469 1468 1467 1465 1465 1467 1468 1469 1470 1468 1467 1466 1468 1470 1471 1472 1472 1472 1473 1475 1476 1478 1479 1481 1482 1482 1481 1480 1480 1480 1481 1482 1482 1482 1482 1482 1482 1483 1483 1483 1483 1484 1484 1484 1484 1484 1484 1484 1484 1484 1484 1484 1483 1483 1484 1484 1484 1484 1484 1484 1484 1484 1484 1484
1471 1473 1475 1478 1476 1474 1475 1472 1470 1470 1468 1466 1470 1472 1473 1475 1474 1476 1478 1473 1469 1470 1470 1469 1468 1466 1467 1469 1470 1470 1471 1469 1468 1468 1469 1471 1473 1474 1475 1475 1476 1477 1478 1479 1480 1481 1481 1480 1479 1479 1479 1479 1480 1480 1480 1481 1481 1481 1481 1481 1481 1481 1481 1482 1482 1482 1482 1482 1482 1482 1482 1482 1481 1481 1481 1481 1481 1481 1481 1482 1482 1482 1482 1482 1482 1481
1471 1472 1473 1476 1476 1475 1476 1477 1476 1474 1470 1470 1474 1474 1475 1477 1476 1477 1478 1473 1470 1474 1475 1472 1471 1470 1471 1472 1472 1472 1472 1470 1470 1471 1472 1473 1473 1475 1476 1477 1477 1478 1479 1479 1479 1480 1479 1478 1478 1478 1478 1478 1478 1478 1479 1479 1479 1479 1479 1479 1479 1479 1479 1479 1479 1479 1480 1479 1479 1479 1479 1479 1478 1478 1478 1478 1478 1478 1478 1479 1479 1479 1479 1479 1479 1479
1473 1473 1475 1477 1477 1475 1476 1476 1473 1470 1471 1474 1476 1476 1478 1479 1479 1482 1483 1476 1472 1476 1478 1476 1476 1475 1475 1476 1475 1474 1473 1471 1473 1475 1476 1475 1476 1476 1477 1477 1477 1478 1478 1478 1478 1478 1477 1477 1477 1476 1476 1476 1476 1476 1477 1477 1477 1477 1477 1477 1476 1476 1476 1476 1476 1477 1477 1477 1477 1477 1476 1476 1476 1475 1475 1475 1475 1475 1475 1475 1476 1476 1476 1477 1477 1477
1477 1478 1478 1479 1478 1475 1476 1476 1471 1468 1473 1478 1478 1478 1480 1480 1480 1482 1481 1476 1476 1478 1477 1477 1478 1478 1477 1478 1477 1476 1474 1474 1475 1476 1476 1476 1476 1476 1476 1477 1477 1477 1477 1477 1477 1476 1476 1475 1474 1474 1474 1474 1474 1474 1475 1474 1474 1474 1474 1474 1473 1473 1473 1473 1473 1474 1474 1474 1474 1474 1474 1473 1473 1473 1472 1472 1472 1471 1472 1472 1473 1473 1473 1474 1474 1475
1481 1482 1482 1481 1480 1476 1475 1476 1473 1472 1478 1482 1481 1480 1481 1481 1480 1479 1478 1479 1481 1479 1478 1479 1479 1478 1478 1478 1477 1476 1475 1475 1475 1475 1475 1475 1474 1475 1475 1475 1475 1475 1475 1475 1475 1474 1473 1472 1472 1472 1472 1472 1472 1472 1472 1472 1471 1471 1471 1470 1470 1470 1470 1470 1471 1471 1471 1471 1471 1471 1470 1470 1470 1470 1469 1468 1468 1468 1468 1468 1469 1470 1470 1471 1471 1471
1482 1484 1482 1479 1478 1478 1477 1478 1478 1478 1481 1483 1481 1480 1481 1481 1480 1479 1480 1481 1481 1480 1480 1480 1479 1478 1479 1478 1477 1477 1475 1475 1475 1474 1474 1474 1473 1473 1473 1473 1473 1473 1472 1472 1472 1471 1470 1470 1469 1469 1469 1469 1469 1469 1469 1469 1468 1467 1467 1466 1466 1467 1467 1467 1467 1467 1467 1468 1467 1467 1467 1467 1467 1466 1466 1465 1464 1464 1464 1465 1466 1466 1467 1467 1467 1468
1482 1483 1481 1478 1478 1481 1480 1478 1478 1481 1482 1483 1483 1482 1483 1483 1483 1483 1483 1481 1480 1481 1481 1479 1478 1478 1479 1478 1478 1477 1475 1475 1474 1473 1473 1473 1471 1471 1470 1470 1470 1470 1469 1469 1469 1468 1468 1467 1465 1465 1466 1465 1466 1466 1465 1465 1464 1464 1463 1463 1463 1464 1464 1464 1464 1464 1464 1464 1464 1464 1464 1463 1463 1463 1463 1462 1462 1461 1461 1462 1462 1463 1464 1463 1463 1465
1481 1481 1483 1483 1483 1483 1481 1477 1477 1479 1480 1481 1483 1483 1483 1483 1484 1484 1483 1482 1481 1481 1480 1478 1478 1477 1477 1477 1477 1475 1474 1473 1472 1472 1471 1471 1469 1468 1468 1467 1467 1466 1466 1466 1466 1466 1465 1463 1462 1462 1462 1461 1462 1462 1461 1461 1460 1459 1459 1459 1460 1460 1460 1460 1460 1460 1460 1460 1460 1460 1460 1460 1460 1460 1460 1460 1459 1459 1459 1459 1459 1459 1460 1460 1461 1463
1482 1483 1485 1487 1486 1484 1482 1479 1479 1479 1480 1481 1482 1482 1482 1482 1482 1482 1482 1480 1479 1479 1479 1479 1478 1476 1476 1476 1474 1472 1472 1471 1470 1469 1469 1468 1467 1466 1465 1464 1464 1463 1462 1462 1462 1462 1461 1460 1459 1458 1457 1457 1458 1458 1457 1457 1457 1456 1456 1456 1456 1456 1456 1457 1457 1456 1456 1456 1456 1456 1457 1457 1457 1457 1457 1457 1457 1456 1456 1456 1456 1457 1458 1458 1459 1461
1485 1488 1488 1489 1489 1488 1485 1481 1479 1480 1481 1481 1482 1481 1481 1481 1480 1479 1479 1478 1478 1479 1479 1478 1477 1476 1475 1474 1472 1471 1469 1468 1467 1466 1465 1464 1463 1462 1462 1461 1460 1460 1459 1458 1458 1458 1457 1456 1455 1454 1454 1454 1454 1454 1453 1453 1452 1452 1452 1452 1452 1453 1453 1453 1453 1452 1452 1452 1453 1453 1453 1453 1454 1454 1454 1454 1453 1453 1453 1454 1454 1455 1456 1456 1458 1459
1488 1491 1490 1488 1488 1487 1485 1482 1481 1481 1481 1480 1481 1480 1479 1479 1479 1479 1479 1479 1479 1479 1479 1478 1477 1475 1473 1472 1471 1470 1468 1466 1465 1463 1461 1461 1460 1458 1458 1457 1456 1456 1455 1455 1455 1454 1453 1452 1451 1451 1450 1450 1450 1450 1449 1449 1448 1448 1448 1448 1449 1449 1448 1448 1449 1449 1449 1449 1449 1450 1450 1450 1450 1450 1451 1450 1450 1450 1451 1451 1452 1453 1453 1454 1455 1456
1489 1490 1489 1488 1487 1486 1484 1482 1481 1480 1479 1478 1479 1479 1479 1479 1480 1480 1480 1479 1479 1478 1477 1475 1474 1473 1472 1471 1469 1468 1467 1465 1463 1461 1460 1458 1456 1455 1454 1453 1453 1453 1452 1452 1451 1451 1449 1448 1448 1447 1447 1446 1446 1446 1445 1444 1445 1444 1444 1445 1445 1445 1444 1444 1444 1445 1445 1445 1445 1446 1446 1447 1447 1447 1447 1447 1447 1448 1448 1449 1450 1451 1451 1452 1453 1455
1489 1488 1486 1487 1488 1485 1482 1481 1481 1482 1481 1480 1480 1480 1481 1481 1480 1479 1478 1477 1476 1475 1473 1472 1470 1470 1469 1468 1467 1466 1464 1462 1461 1459 1457 1455 1454 1453 1452 1451 1450 1450 1449 1448 1448 1446 1445 1444 1443 1443 1442 1441 1441 1441 1440 1440 1440 1440 1440 1440 1440 1440 1440 1440 1440 1440 1441 1441 1442 1442 1443 1443 1444 1444 1444 1443 1444 1445 1446 1447 1448 1449 1449 1451 1453 1455
1490 1489 1488 1489 1488 1486 1484 1484 1485 1485 1484 1482 1481 1481 1481 1480 1478 1477 1476 1475 1473 1472 1471 1469 1467 1466 1465 1464 1463 1463 1460 1458 1457 1455 1453 1452 1451 1450 1449 1448 1447 1446 1445 1445 1443 1442 1441 1440 1439 1438 1437 1437 1436 1436 1435 1435 1435 1435 1435 1435 1435 1435 1435 1435 1435 1436 1436 1437 1438 1438 1439 1440 1440 1441 1440 1440 1442 1443 1444 1445 1447 1448 1450 1453 1455 1457